This is the latest recevied weather packets stored in our database for station/object WB4ROX. If no packets are shown the sender has not sent any weather packets the latest 10 day(s).
| Time | Temp. | Humidity | Pressure | Rain* | Wind** | Luminosity | Snow |
|---|---|---|---|---|---|---|---|
| 1776966824 | 16.67° C | 40% | 1022.7 hPa | 0 mm | - | 178 W/m² | - |
| 1776966521 | 16.67° C | 39% | 1022.8 hPa | 0 mm | - | 190 W/m² | - |
| 1776966217 | 17.22° C | 39% | 1022.8 hPa | 0 mm | - | 893 W/m² | - |
| 1776965912 | 16.67° C | 40% | 1022.9 hPa | 0 mm | - | 875 W/m² | - |
| 1776965610 | 16.67° C | 41% | 1022.9 hPa | 0 mm | - | 365 W/m² | - |
| 1776965307 | 16.67° C | 41% | 1023.3 hPa | 0 mm | - | 932 W/m² | - |
| 1776965006 | 16.67° C | 40% | 1023.1 hPa | 0 mm | - | 948 W/m² | - |
| 1776964700 | 16.67° C | 40% | 1023.4 hPa | 0 mm | - | 874 W/m² | - |
| 1776964400 | 16.67° C | 40% | 1023.4 hPa | 0 mm | - | 869 W/m² | - |
| 1776964099 | 16.67° C | 40% | 1023.1 hPa | 0 mm | - | 867 W/m² | - |
| 1776963799 | 16.67° C | 40% | 1023.1 hPa | 0 mm | - | 876 W/m² | - |
| 1776963498 | 16.67° C | 41% | 1023.3 hPa | 0 mm | - | 128 W/m² | - |
| 1776963195 | 16.67° C | 41% | 1023.3 hPa | 0 mm | - | 199 W/m² | - |
| 1776962891 | 16.67° C | 41% | 1023.4 hPa | 0 mm | - | 856 W/m² | - |
| 1776962587 | 16.67° C | 41% | 1023.7 hPa | 0 mm | - | 883 W/m² | - |
| 1776962286 | 16.11° C | 42% | 1023.7 hPa | 0 mm | - | 921 W/m² | - |
| 1776961981 | 16.11° C | 42% | 1023.7 hPa | 0 mm | - | 840 W/m² | - |
| 1776961681 | 16.11° C | 42% | 1023.5 hPa | 0 mm | - | 830 W/m² | - |
| 1776961379 | 16.11° C | 42% | 1023.8 hPa | 0 mm | - | 838 W/m² | - |
| 1776961074 | 16.67° C | 42% | 1024.1 hPa | 0 mm | - | 809 W/m² | - |
| 1776960770 | 16.11° C | 42% | 1024.1 hPa | 0 mm | - | 807 W/m² | - |
| 1776960465 | 16.11° C | 43% | 1023.8 hPa | 0 mm | - | 801 W/m² | - |
| 1776960164 | 15.56° C | 43% | 1023.8 hPa | 0 mm | - | 780 W/m² | - |
| 1776959860 | 15.56° C | 41% | 1023.7 hPa | 0 mm | - | 774 W/m² | - |
| 1776959556 | 15.56° C | 43% | 1023.8 hPa | 0 mm | - | 764 W/m² | - |
* Rain latest hour (hover to see other rain measurements)
** Current wind speed in m/s (hover to see current wind gust speed)